Location: El Atico
(3.0014°N, 75.4378°W)
Time: 12:17:21
(UTC+00:00)

ARIANE 5 R/B - Pass Details

Date: 09 December 2025
Orbit: 746 x 792 km, 98.8° (Epoch: 25 January)

Event Time Altitude Azimuth Distance (km) Brightness Sun altitude
Rises 23:17:06 0° 172° (S) 3,186 5.9 -6.4°
Reaches altitude 10° 23:19:24 10° 175° (S) 2,263 5.2 -6.9°
Maximum altitude 23:24:20 68° 257° (WSW) 805 2.9 -8.1°
Drops below altitude 10° 23:29:18 10° 340° (NNW) 2,275 4.9 -9.2°
Sets 23:31:37 0° 343° (NNW) 3,204 5.7 -9.7°
